| time (UTC) | temp F | wind direction | speed MPH | gust MPH | rain 1hr in | rain 24hr in | rain mn in | humidity % | barometer mb |
| 20260504044511 | 54 | 197 | 1.0 | 3.0 | 0.00 | 0.00 | 0.00 | 34 | 1003.8 |
| 20260504043024 | 54 | 198 | 0.0 | 2.0 | 0.00 | 0.00 | 0.00 | 34 | 1004.0 |
| 20260504041521 | 54 | 245 | 0.0 | 2.0 | 0.00 | 0.00 | 0.00 | 33 | 1004.3 |
| 20260504040024 | 55 | 246 | 0.0 | 1.0 | 0.00 | 0.00 | 0.00 | 32 | 1004.7 |
| 20260504034528 | 55 | 246 | 0.0 | 2.0 | 0.00 | 0.00 | 0.00 | 31 | 1004.8 |
| 20260504033029 | 56 | 246 | 0.0 | 0.0 | 0.00 | 0.00 | 0.00 | 30 | 1005.0 |
| 20260504031519 | 57 | 246 | 1.0 | 3.0 | 0.00 | 0.00 | 0.00 | 31 | 1005.1 |
| 20260504030021 | 58 | 250 | 0.0 | 2.0 | 0.00 | 0.00 | 0.00 | 30 | 1005.3 |
| 20260504024524 | 59 | 250 | 0.0 | 0.0 | 0.00 | 0.00 | 0.00 | 28 | 1005.5 |
| 20260504023028 | 60 | 250 | 0.0 | 0.0 | 0.00 | 0.00 | 0.00 | 25 | 1005.5 |
| 20260504021533 | 61 | 250 | 0.0 | 0.0 | 0.00 | 0.00 | 0.00 | 23 | 1005.5 |
| 20260504020017 | 62 | 250 | 0.0 | 2.0 | 0.00 | 0.00 | 0.00 | 23 | 1005.6 |
| 20260504014504 | 63 | 246 | 0.0 | 3.0 | 0.00 | 0.00 | 0.00 | 22 | 1005.5 |
| 20260504013008 | 64 | 240 | 2.0 | 7.0 | 0.00 | 0.00 | 0.00 | 21 | 1005.5 |
| 20260504011510 | 65 | 275 | 2.0 | 7.0 | 0.00 | 0.00 | 0.00 | 20 | 1005.5 |
| 20260504010003 | 66 | 273 | 3.0 | 10.0 | 0.00 | 0.00 | 0.00 | 18 | 1005.5 |
| 20260504004509 | 67 | 239 | 3.0 | 11.0 | 0.00 | 0.00 | 0.00 | 17 | 1005.5 |
| 20260504003006 | 67 | 347 | 2.0 | 7.0 | 0.00 | 0.00 | 0.00 | 17 | 1005.6 |
| 20260504001507 | 68 | 37 | 0.0 | 9.0 | 0.00 | 0.00 | 0.00 | 17 | 1005.7 |
| 20260504000011 | 69 | 280 | 2.0 | 12.0 | 0.00 | 0.00 | 0.00 | 14 | 1005.7 |
| 20260503234503 | 70 | 277 | 2.0 | 12.0 | 0.00 | 0.00 | 0.00 | 14 | 1005.7 |
| 20260503233004 | 70 | 248 | 2.0 | 11.0 | 0.00 | 0.00 | 0.00 | 14 | 1005.8 |
| 20260503231504 | 70 | 257 | 2.0 | 14.0 | 0.00 | 0.00 | 0.00 | 15 | 1005.9 |
| 20260503230011 | 71 | 279 | 2.0 | 13.0 | 0.00 | 0.00 | 0.00 | 14 | 1005.9 |
| 20260503224515 | 71 | 264 | 4.0 | 13.0 | 0.00 | 0.00 | 0.00 | 14 | 1005.8 |
| 20260503223030 | 70 | 5 | 4.0 | 12.0 | 0.00 | 0.00 | 0.00 | 14 | 1005.9 |
| 20260503221505 | 71 | 264 | 6.0 | 13.0 | 0.00 | 0.00 | 0.00 | 14 | 1005.7 |
| 20260503220009 | 71 | 336 | 6.0 | 14.0 | 0.00 | 0.00 | 0.00 | 15 | 1005.7 |
| 20260503214533 | 71 | 282 | 4.0 | 14.0 | 0.00 | 0.00 | 0.00 | 14 | 1005.8 |
| 20260503213021 | 71 | 265 | 2.0 | 15.0 | 0.00 | 0.00 | 0.00 | 16 | 1005.9 |
| 20260503211523 | 71 | 334 | 4.0 | 14.0 | 0.00 | 0.00 | 0.00 | 15 | 1006.1 |
| 20260503210008 | 71 | 344 | 4.0 | 14.0 | 0.00 | 0.00 | 0.00 | 16 | 1006.1 |
| 20260503204510 | 70 | 298 | 3.0 | 17.0 | 0.00 | 0.00 | 0.00 | 16 | 1006.4 |
| 20260503203016 | 70 | 335 | 4.0 | 15.0 | 0.00 | 0.00 | 0.00 | 17 | 1006.5 |
| 20260503201521 | 70 | 5 | 7.0 | 22.0 | 0.00 | 0.00 | 0.00 | 18 | 1006.7 |
| 20260503200033 | 70 | 301 | 5.0 | 17.0 | 0.00 | 0.00 | 0.00 | 16 | 1006.7 |
| 20260503194506 | 70 | 13 | 3.0 | 13.0 | 0.00 | 0.00 | 0.00 | 20 | 1006.8 |
| 20260503193015 | 69 | 11 | 6.0 | 24.0 | 0.00 | 0.00 | 0.00 | 17 | 1006.8 |
| 20260503191519 | 68 | 360 | 7.0 | 20.0 | 0.00 | 0.00 | 0.00 | 18 | 1007.0 |
| 20260503190022 | 69 | 18 | 5.0 | 15.0 | 0.00 | 0.00 | 0.00 | 21 | 1006.9 |
| 20260503184533 | 68 | 11 | 8.0 | 21.0 | 0.00 | 0.00 | 0.00 | 20 | 1007.0 |
| 20260503183011 | 68 | 319 | 7.0 | 16.0 | 0.00 | 0.00 | 0.00 | 20 | 1007.0 |
| 20260503181516 | 67 | 231 | 4.0 | 18.0 | 0.00 | 0.00 | 0.00 | 22 | 1007.2 |
| 20260503180041 | 67 | 337 | 6.0 | 16.0 | 0.00 | 0.00 | 0.00 | 22 | 1007.3 |
| 20260503174531 | 67 | 342 | 2.0 | 21.0 | 0.00 | 0.00 | 0.00 | 25 | 1007.4 |
| 20260503173039 | 66 | 299 | 7.0 | 18.0 | 0.00 | 0.00 | 0.00 | 24 | 1007.4 |
| 20260503171510 | 66 | 295 | 5.0 | 15.0 | 0.00 | 0.00 | 0.00 | 26 | 1007.4 |
| 20260503081537 | 56 | 194 | 6.0 | 15.0 | 0.00 | 0.00 | 0.00 | 30 | 1007.1 |